Overview Statistics Trail Chart Weather Telemetry Raw packets
 

This is the latest recevied weather packets stored in our database for station/object N7IGG. If no packets are shown the sender has not sent any weather packets the latest 10 day(s).

<< 61 62 63 64 65 66 67 >>
Time Temp. Humidity Pressure Rain* Wind** Luminosity Snow
1777743991 14.44° C 90% 1016.9 hPa 0 mm - 72 W/m² -
1777743687 14.44° C 91% 1017.1 hPa 0 mm - 69 W/m² -
1777743384 13.89° C 92% 1017.2 hPa 0 mm - 78 W/m² -
1777743082 13.33° C 93% 1017 hPa 0 mm - 79 W/m² -
1777742779 13.33° C 94% 1017 hPa 0 mm - 82 W/m² -
1777742476 13.33° C 95% 1017.2 hPa 0 mm - 71 W/m² -
1777742171 12.78° C 95% 1017.2 hPa 0 mm - 73 W/m² -
1777741868 12.22° C 96% 1017.2 hPa 0 mm - 94 W/m² -
1777741565 12.22° C 96% 1017.3 hPa 0 mm - 84 W/m² -
1777741262 11.67° C 96% 1017.5 hPa 0 mm - 82 W/m² -
1777740959 11.67° C 96% 1017.4 hPa 0 mm - 79 W/m² -
1777740656 11.11° C 96% 1017.5 hPa 0 mm - 97 W/m² -
1777740352 11.11° C 96% 1017.4 hPa 0 mm - 73 W/m² -
1777740049 11.11° C 96% 1017.6 hPa 0 mm - 71 W/m² -
1777739745 10.56° C 96% 1017.5 hPa 0 mm - 62 W/m² -
1777739442 10.56° C 96% 1017.6 hPa 0 mm - 59 W/m² -
1777739139 10.56° C 96% 1017.7 hPa 0 mm - 59 W/m² -
1777738836 10.56° C 95% 1017.6 hPa 0 mm - 62 W/m² -
1777738532 10.56° C 95% 1017.4 hPa 0 mm - 62 W/m² -
1777738231 10.56° C 95% 1017.6 hPa 0 mm - 62 W/m² -
1777737928 10.56° C 95% 1017.5 hPa 0 mm - 64 W/m² -
1777737626 10.56° C 95% 1017.6 hPa 0 mm - 61 W/m² -
1777737325 10.56° C 95% 1017.5 hPa 0 mm - 57 W/m² -
1777737021 10.56° C 95% 1017.5 hPa 0 mm - 56 W/m² -
1777736717 10.56° C 95% 1017.4 hPa 0 mm - 69 W/m² -

* Rain latest hour (hover to see other rain measurements)
** Current wind speed in m/s (hover to see current wind gust speed)